STARLINK-37210, 68557

Orbit data source: Space-Track

STARLINK-37210, 68557 is a payload satellite owned by SpaceX/Seattle (US) in LEO that was launched on Thu, 02 Apr 2026 UTC via an FALCON 9 launch vehicle from the Air Force Eastern Test Range (AFETR). Payload-class satellites include a variety of spacecraft equipped with specific instruments for various scientific and technological missions. These include communications satellites like Starlink; space stations such as the ISS; scientific satellites like the Hubble; Earth observation satellites from companies like Planet Labs, Umbra, and HawkEye 360; GPS; miniature CubeSats for education and research; and military/defense satellites.

Loading next visibility...
Identifier
68557, 2026-070R
Orbit
LEO
Country
Flag of USUS
Related business
Manufacturer
SpaceX/Seattle
Mission
Operational spacecraft
Bus & Motor
STARLINK V2MO, Unknown motor
Mass
575 kg wet, ~530 kg dry
Launch date (UTC)
2026-04-02 (2 months ago)
Launch vehicle
FALCON 9
Launch site
Air Force Eastern Test Range (AFETR)
Object type
Payload
Rocket body
Debris
Shape & HBR
Unknown shape, 14.5 m
Radar Cross Section
RCS unknown

Expand to show TLE details & history
Last TLE update: 17 hours ago

TLE from 17 hours ago
0 STARLINK-37210
1 68557U 26070R   26145.31126921  .00018143  00000-0  54665-3 0  9995
2 68557  53.1580   6.1236 0000821  77.0507 283.0588 15.34408220  8292
Epoch: 2026-05-25T07:28Z
TLE epoch observation values (Epoch: 2026-05-25T07:28:13.659Z)
Latitude
0.00003°
Longitude
11.16583°
Altitude
463.453 km
Speed
7.636 km/s
True Right ascension
00h 24m 29s
True Declination
0° 00' 00"
Sunlit
Object was in daylight at epoch
Visualization orbit readout
Latitude
Unknown
Longitude
Unknown
Altitude
Unknown
Speed
Unknown
Apparent Right ascension
Unknown
Apparent Declination
Unknown
Sunlit
N/A
Visualization observer readout
Local Sidereal Time
09:23:05
Azimuth
Unknown
Elevation
Unknown
Doppler factor
Unknown
Orbital elements
Apogee altitude
463.498 km
Perigee altitude
462.374 km
Semi-major axis
6,841.073 km
Eccentricity
0.00008
Inclination
53.158°
RAAN
6.1236°
Arg. of periapsis
77.0507°
True anomaly
283.04964°
Mean anomaly
283.0588°
Eccentric anomaly
283.05422°
Mean motion
3.83581 °/min
Orbital period
93.85 mins
BSTAR
0.00054665
Loading maneuver chart data...
Computing Atmospheric mass density...
Loading historical data...
Loading historical data...
Loading historical data...
Loading historical data...
Loading historical data...
Loading historical data...
Loading historical data...

Documentation

Showing up to 5 results
|